Half Moon Bay, CA

10:34 AM PST on December 08, 2019 (GMT -0800)
Half Moon Bay

Weather History for KHAF - November, 2019

Change the Weather History Date:

Wednesday, November 13, 2019

  Actual Average Record
Temperature  
Mean Temperature 50 °F -  
Max Temperature 55 °F 62 °F 69 °F (2012)
Min Temperature 46 °F 45 °F 39 °F (2015)
Degree Days  
Heating Degree Days 14    
Moisture  
Dew Point 49 °F    
Average Humidity 93    
Maximum Humidity 100    
Minimum Humidity 82    
Precipitation  
Precipitation 0.00 in - - ()
Sea Level Pressure  
Sea Level Pressure 30.02 in    
Wind  
Wind Speed 5 mph ()    
Max Wind Speed 10 mph    
Max Gust Speed -    
Visibility 3.8 miles    
Events Fog    
Averages and records for this station are not official NWS values.
T = Trace of Precipitation, MM = Missing Value Source: Averaged Metar Reports

Daily Weather History Graph

Daily Weather History Graph

Search for Another Location

Airport or City:

Astronomy

Nov. 13, 2019 Rise Set
Actual Time 6:47 AM PST 5:00 PM PST
Civil Twilight 6:19 AM PST 5:28 PM PST
Nautical Twilight 5:48 AM PST 5:59 PM PST
Astronomical Twilight 5:17 AM PST 6:30 PM PST
Moon 6:08 PM PST (11/13) 7:45 AM PST (11/13)
Length of Visible Light 11h 08m
Length of Day
10h 13m
Full, 98% of the Moon is Illuminated
Nov 13
Full
Nov 19
Last Quarter
Nov 26
New
Dec 3
First Quarter
Dec 11
Full

Hourly Weather History & Observations

Time (PST) Temp. Windchill Dew Point Humidity Pressure Visibility Wind Dir Wind Speed Gust Speed Precip Events Conditions
12:00 AM 46.4 °F 45.2 °F 46.4 °F 100% 30.03 in 0.2 mi East 3.5 mph - N/A Fog Fog
12:15 AM 46.4 °F 45.2 °F 46.4 °F 100% 30.03 in 0.2 mi ENE 3.5 mph - N/A Fog Fog
12:20 AM 46.4 °F 45.2 °F 46.4 °F 100% 30.03 in 0.2 mi ENE 3.5 mph - N/A Fog Fog
12:35 AM 48.2 °F - 46.4 °F 93% 30.03 in 0.2 mi East 3.5 mph - N/A Fog Fog
12:55 AM 46.4 °F 43.5 °F 46.4 °F 100% 30.03 in 0.2 mi ENE 5.8 mph - N/A Fog Fog
1:00 AM 46.4 °F 43.5 °F 46.4 °F 100% 30.03 in 0.2 mi ENE 5.8 mph - N/A Fog Fog
1:15 AM 46.4 °F 45.2 °F 46.4 °F 100% 30.02 in 0.2 mi East 3.5 mph - N/A Fog Fog
1:20 AM 46.4 °F - 46.4 °F 100% 30.02 in 0.2 mi Calm Calm - N/A Fog Fog
1:40 AM 48.2 °F - 46.4 °F 93% 30.02 in 0.2 mi SE 4.6 mph - N/A Fog Fog
1:55 AM 46.4 °F 45.2 °F 46.4 °F 100% 30.02 in 0.5 mi ESE 3.5 mph - N/A Fog Fog
2:00 AM 46.4 °F 45.2 °F 46.4 °F 100% 30.02 in 0.5 mi East 3.5 mph - N/A Fog Fog
2:15 AM 46.4 °F 44.3 °F 46.4 °F 100% 30.02 in 0.5 mi ENE 4.6 mph - N/A Fog Fog
2:35 AM 46.4 °F 45.2 °F 46.4 °F 100% 30.02 in 0.2 mi ESE 3.5 mph - N/A Fog Fog
2:40 AM 46.4 °F 45.2 °F 46.4 °F 100% 30.02 in 0.2 mi ESE 3.5 mph - N/A Fog Fog
2:55 AM 48.2 °F - 46.4 °F 93% 30.01 in 0.2 mi SE 5.8 mph - N/A Fog Fog
3:00 AM 48.2 °F - 46.4 °F 93% 30.01 in 0.2 mi SE 4.6 mph - N/A Fog Fog
3:15 AM 48.2 °F - 48.2 °F 100% 30.01 in 0.2 mi ESE 4.6 mph - N/A Fog Fog
3:20 AM 48.2 °F - 48.2 °F 100% 30.01 in 0.2 mi ESE 4.6 mph - N/A Fog Fog
3:35 AM 48.2 °F - 48.2 °F 100% 30.01 in 0.2 mi ESE 4.6 mph - N/A Fog Fog
3:40 AM 48.2 °F - 48.2 °F 100% 30.01 in 0.2 mi ESE 4.6 mph - N/A Fog Fog
3:55 AM 48.2 °F - 48.2 °F 100% 30.01 in 0.2 mi SSE 5.8 mph - N/A Fog Fog
4:15 AM 48.2 °F - 46.4 °F 93% 30.02 in 0.2 mi SSE 5.8 mph - N/A Fog Fog
4:35 AM 46.4 °F 44.3 °F 46.4 °F 100% 30.01 in 0.5 mi ESE 4.6 mph - N/A Fog Fog
4:40 AM 46.4 °F 44.3 °F 46.4 °F 100% 30.01 in 0.5 mi ESE 4.6 mph - N/A Fog Fog
4:55 AM 46.4 °F 45.2 °F 46.4 °F 100% 30.01 in 0.2 mi SE 3.5 mph - N/A Fog Fog
5:00 AM 46.4 °F 45.2 °F 46.4 °F 100% 30.01 in 0.2 mi SE 3.5 mph - N/A Fog Fog
5:15 AM 46.4 °F 45.2 °F 46.4 °F 100% 30.01 in 0.2 mi ESE 3.5 mph - N/A Fog Fog
5:20 AM 46.4 °F - 46.4 °F 100% 30.01 in 0.2 mi Calm Calm - N/A Fog Fog
5:35 AM 46.4 °F 44.3 °F 46.4 °F 100% 30.01 in 0.2 mi East 4.6 mph - N/A Fog Fog
5:40 AM 46.4 °F 44.3 °F 46.4 °F 100% 30.01 in 0.2 mi East 4.6 mph - N/A Fog Fog
5:55 AM 46.4 °F - 46.4 °F 100% 30.01 in 0.2 mi Calm Calm - N/A Fog Fog
6:15 AM 46.4 °F 42.9 °F 46.4 °F 100% 30.01 in 0.2 mi ENE 6.9 mph - N/A Fog Fog
6:35 AM 46.4 °F - 46.4 °F 100% 30.02 in 0.2 mi Calm Calm - N/A Fog Fog
6:40 AM 46.4 °F - 46.4 °F 100% 30.02 in 0.2 mi Calm Calm - N/A Fog Fog
6:55 AM 46.4 °F 45.2 °F 46.4 °F 100% 30.02 in 0.2 mi East 3.5 mph - N/A Fog Fog
7:00 AM 46.4 °F 44.3 °F 46.4 °F 100% 30.02 in 0.2 mi East 4.6 mph - N/A Fog Fog
7:15 AM 46.4 °F 43.5 °F 46.4 °F 100% 30.02 in 0.2 mi East 5.8 mph - N/A Fog Fog
7:20 AM 48.2 °F - 46.4 °F 93% 30.02 in 0.2 mi East 5.8 mph - N/A Fog Fog
7:35 AM 48.2 °F - 48.2 °F 100% 30.02 in 0.5 mi East 3.5 mph - N/A Fog Fog
7:55 AM 48.2 °F - 48.2 °F 100% 30.04 in 0.2 mi East 3.5 mph - N/A Fog Fog
8:00 AM 48.2 °F - 48.2 °F 100% 30.04 in 0.2 mi East 5.8 mph - N/A Fog Fog
8:15 AM 48.2 °F - 48.2 °F 100% 30.04 in 0.5 mi East 5.8 mph - N/A Fog Fog
8:20 AM 50.0 °F - 50.0 °F 100% 30.04 in 0.5 mi East 5.8 mph - N/A Fog Fog
8:35 AM 50.0 °F - 50.0 °F 100% 30.04 in 0.5 mi SE 5.8 mph - N/A Fog Fog
8:55 AM 50.0 °F - 50.0 °F 100% 30.04 in 0.5 mi SE 6.9 mph - N/A Fog Fog
9:00 AM 50.0 °F - 50.0 °F 100% 30.04 in 0.2 mi Calm Calm - N/A Fog Fog
9:15 AM 50.0 °F - 50.0 °F 100% 30.04 in 0.2 mi South 3.5 mph - N/A Fog Fog
9:20 AM 50.0 °F - 50.0 °F 100% 30.04 in 0.2 mi SE 4.6 mph - N/A Fog Fog
9:35 AM 50.0 °F - 50.0 °F 100% 30.04 in 0.5 mi ESE 3.5 mph - N/A Fog Fog
9:55 AM 50.0 °F - 50.0 °F 100% 30.04 in 1.0 mi SSE 5.8 mph - N/A   Overcast
10:00 AM 50.0 °F - 50.0 °F 100% 30.04 in 1.0 mi Calm Calm - N/A   Overcast
10:15 AM 50.0 °F - 50.0 °F 100% 30.03 in 1.0 mi SE 4.6 mph - N/A   Overcast
10:20 AM 50.0 °F - 50.0 °F 100% 30.04 in 1.2 mi SW 3.5 mph - N/A   Overcast
10:35 AM 50.0 °F - 50.0 °F 100% 30.05 in 0.8 mi SSE 3.5 mph - N/A   Overcast
10:55 AM 50.0 °F - 50.0 °F 100% 30.05 in 1.8 mi South 5.8 mph - N/A   Overcast
11:00 AM 50.0 °F - 50.0 °F 100% 30.05 in 1.8 mi SSW 4.6 mph - N/A   Overcast
11:15 AM 50.0 °F - 50.0 °F 100% 30.05 in 1.8 mi SSE 3.5 mph - N/A   Overcast
11:20 AM 51.8 °F - 50.0 °F 94% 30.05 in 1.8 mi South 3.5 mph - N/A   Overcast
11:35 AM 51.8 °F - 50.0 °F 94% 30.05 in 2.0 mi SE 4.6 mph - N/A   Overcast
11:55 AM 51.8 °F - 50.0 °F 94% 30.03 in 4.0 mi SSE 5.8 mph - N/A   Overcast
12:15 PM 51.8 °F - 51.8 °F 100% 30.02 in 3.0 mi SE 5.8 mph - N/A   Overcast
12:20 PM 51.8 °F - 51.8 °F 100% 30.02 in 3.0 mi SE 6.9 mph - N/A   Overcast
12:35 PM 53.6 °F - 51.8 °F 94% 30.01 in 3.0 mi SE 5.8 mph - N/A   Overcast
12:40 PM 53.6 °F - 51.8 °F 94% 30.01 in 3.0 mi SE 6.9 mph - N/A   Overcast
12:55 PM 53.6 °F - 53.6 °F 100% 29.99 in 5.0 mi SSE 6.9 mph - N/A   Overcast
1:00 PM 53.6 °F - 51.8 °F 94% 29.99 in 5.0 mi South 6.9 mph - N/A   Overcast
1:15 PM 53.6 °F - 51.8 °F 94% 30.00 in 4.0 mi South 5.8 mph - N/A   Overcast
1:20 PM 53.6 °F - 51.8 °F 94% 30.00 in 5.0 mi South 4.6 mph - N/A   Overcast
1:35 PM 53.6 °F - 50.0 °F 88% 29.99 in 5.0 mi South 5.8 mph - N/A   Overcast
1:40 PM 53.6 °F - 50.0 °F 88% 29.99 in 5.0 mi SSW 5.8 mph - N/A   Overcast
1:55 PM 53.6 °F - 50.0 °F 88% 29.99 in 5.0 mi SSW 5.8 mph - N/A   Overcast
2:15 PM 53.6 °F - 50.0 °F 88% 30.01 in 5.0 mi SSE 4.6 mph - N/A   Overcast
2:35 PM 53.6 °F - 50.0 °F 88% 30.01 in 6.0 mi SSE 5.8 mph - N/A   Overcast
2:40 PM 53.6 °F - 50.0 °F 88% 30.01 in 6.0 mi South 4.6 mph - N/A   Overcast
2:55 PM 53.6 °F - 50.0 °F 88% 30.00 in 5.0 mi SSE 4.6 mph - N/A   Overcast
3:00 PM 53.6 °F - 50.0 °F 88% 30.00 in 5.0 mi SE 8.1 mph - N/A   Overcast
3:15 PM 53.6 °F - 50.0 °F 88% 30.00 in 5.0 mi SE 8.1 mph - N/A   Overcast
3:20 PM 53.6 °F - 50.0 °F 88% 30.00 in 5.0 mi SE 6.9 mph - N/A   Overcast
3:35 PM 53.6 °F - 50.0 °F 88% 30.00 in 6.0 mi SSE 6.9 mph - N/A   Overcast
3:40 PM 53.6 °F - 50.0 °F 88% 30.00 in 7.0 mi SSE 6.9 mph - N/A   Overcast
3:55 PM 53.6 °F - 50.0 °F 88% 30.00 in 5.0 mi SSE 6.9 mph - N/A   Overcast
4:15 PM 53.6 °F - 50.0 °F 88% 30.00 in 5.0 mi SE 5.8 mph - N/A   Overcast
4:20 PM 53.6 °F - 50.0 °F 88% 30.00 in 5.0 mi SE 6.9 mph - N/A   Overcast
4:35 PM 53.6 °F - 50.0 °F 88% 30.00 in 5.0 mi SSE 6.9 mph - N/A   Overcast
4:40 PM 53.6 °F - 50.0 °F 88% 30.00 in 5.0 mi SSE 6.9 mph - N/A   Overcast
4:55 PM 53.6 °F - 50.0 °F 88% 30.01 in 5.0 mi SSE 5.8 mph - N/A   Overcast
5:00 PM 53.6 °F - 50.0 °F 88% 30.01 in 5.0 mi SSE 6.9 mph - N/A   Overcast
5:15 PM 53.6 °F - 50.0 °F 88% 30.00 in 8.0 mi SE 8.1 mph - N/A   Overcast
5:20 PM 53.6 °F - 50.0 °F 88% 30.00 in 8.0 mi SSE 6.9 mph - N/A   Overcast
5:35 PM 53.6 °F - 50.0 °F 88% 30.00 in 7.0 mi SE 8.1 mph - N/A   Overcast
5:40 PM 53.6 °F - 50.0 °F 88% 30.00 in 7.0 mi SE 8.1 mph - N/A   Overcast
5:55 PM 53.6 °F - 50.0 °F 88% 30.00 in 5.0 mi SSE 6.9 mph - N/A   Overcast
6:15 PM 55.4 °F - 50.0 °F 82% 30.01 in 7.0 mi SE 8.1 mph - N/A   Overcast
6:20 PM 55.4 °F - 50.0 °F 82% 30.01 in 7.0 mi SE 8.1 mph - N/A   Overcast
6:35 PM 53.6 °F - 50.0 °F 88% 30.01 in 10.0 mi SSE 10.4 mph - N/A   Overcast
6:55 PM 53.6 °F - 50.0 °F 88% 30.00 in 10.0 mi SE 9.2 mph - N/A   Overcast
7:00 PM 53.6 °F - 50.0 °F 88% 30.00 in 10.0 mi SE 9.2 mph - N/A   Overcast
7:15 PM 53.6 °F - 50.0 °F 88% 30.00 in 8.0 mi SE 8.1 mph - N/A   Overcast
7:20 PM 53.6 °F - 50.0 °F 88% 30.00 in 8.0 mi SE 8.1 mph - N/A   Overcast
7:35 PM 53.6 °F - 50.0 °F 88% 30.01 in 9.0 mi SSE 6.9 mph - N/A   Overcast
7:55 PM 53.6 °F - 50.0 °F 88% 30.01 in 8.0 mi SE 6.9 mph - N/A   Overcast
8:00 PM 53.6 °F - 50.0 °F 88% 30.01 in 8.0 mi SSE 4.6 mph - N/A   Overcast
8:15 PM 53.6 °F - 50.0 °F 88% 30.01 in 8.0 mi SE 4.6 mph - N/A   Overcast
8:35 PM 53.6 °F - 50.0 °F 88% 30.01 in 8.0 mi SE 5.8 mph - N/A   Overcast
8:40 PM 53.6 °F - 50.0 °F 88% 30.01 in 8.0 mi ESE 6.9 mph - N/A   Overcast
8:55 PM 53.6 °F - 50.0 °F 88% 30.02 in 9.0 mi SE 5.8 mph - N/A   Overcast
9:00 PM 53.6 °F - 50.0 °F 88% 30.03 in 10.0 mi SE 5.8 mph - N/A   Overcast
9:15 PM 53.6 °F - 50.0 °F 88% 30.04 in 9.0 mi SSE 5.8 mph - N/A   Overcast
9:35 PM 53.6 °F - 50.0 °F 88% 30.03 in 8.0 mi ESE 8.1 mph - N/A   Overcast
9:40 PM 53.6 °F - 50.0 °F 88% 30.03 in 9.0 mi ESE 8.1 mph - N/A   Overcast
9:55 PM 55.4 °F - 50.0 °F 82% 30.03 in 10.0 mi ESE 6.9 mph - N/A   Overcast
10:00 PM 55.4 °F - 50.0 °F 82% 30.03 in 10.0 mi ESE 8.1 mph - N/A   Overcast
10:15 PM 55.4 °F - 50.0 °F 82% 30.03 in 10.0 mi SE 9.2 mph - N/A   Overcast
10:20 PM 55.4 °F - 50.0 °F 82% 30.04 in 10.0 mi SE 6.9 mph - N/A   Overcast
10:35 PM 55.4 °F - 50.0 °F 82% 30.05 in 10.0 mi SSE 5.8 mph - N/A   Overcast
10:40 PM 55.4 °F - 50.0 °F 82% 30.04 in 10.0 mi SE 5.8 mph - N/A   Overcast
10:55 PM 55.4 °F - 50.0 °F 82% 30.04 in 9.0 mi ESE 5.8 mph - N/A   Overcast
11:15 PM 55.4 °F - 50.0 °F 82% 30.03 in 10.0 mi SE 6.9 mph - N/A   Overcast
11:40 PM 55.4 °F - 50.0 °F 82% 30.04 in 10.0 mi SE 5.8 mph - N/A   Overcast
11:55 PM 55.4 °F - 50.0 °F 82% 30.03 in 10.0 mi SE 5.8 mph - N/A   Overcast